COSMOS 2428             
1 31792U 07029A   19266.14748843 -.00000232  00000-0 -99951-4 0  9999
2 31792  70.9341 116.1350 0006495 102.2012 257.9836 14.12437564630980
SL-16 R/B               
1 31793U 07029B   19266.18336201 -.00000292  00000-0 -12753-3 0  9995
2 31793  70.9741  89.8953 0002838 280.2988 202.0414 14.14420883631797
SL-16 DEB               
1 31794U 07029C   19264.51338694  .00000016  00000-0  56559-4 0  9994
2 31794  71.0422  54.0222 0207372 204.4908 224.7475 13.71071429612099
SL-16 DEB               
1 31795U 07029D   19264.55435652  .00000009  00000-0  52384-4 0  9995
2 31795  70.9479  57.7259 0225456 302.9317 119.2493 13.67900189610669
SL-16 DEB               
1 31796U 07029E   19264.57550994  .00000006  00000-0  48539-4 0  9999
2 31796  71.0414  95.8748 0217456 254.7271 166.3300 13.68219399610804
SL-16 DEB               
1 31799U 07029F   19264.78553587 -.00000011  00000-0  32373-4 0  9992
2 31799  70.9403  84.7026 0228488 350.6831 109.3588 13.65774519609534
SL-16 DEB               
1 43374U 07029R   19263.87624157  .00000685  00000-0  64048-3 0  9994
2 43374  71.0693  83.1829 0215571 227.8924 130.3678 13.75354752292255
SL-16 DEB               
1 43375U 07029S   19241.80672633  .00000240  00000-0  17827-3 0  9996
2 43375  70.9048  36.1370 0127419  47.9790  19.4896 14.00842432607493